Starlink 32289

operational
NORAD ID: 60737 Int'l Des: 2024-152 Owner: SPXS Country: US Constellation: starlink
LEOCIRCULAR

关于 Starlink 32289

正在加载描述...

实时位置

正在加载3D地球...

即将过境

高度历史

Altitude vs Time

uPlot chart will show altitude changes over time

两行轨道根数

1 60737U 24152T 25352.54456005 -.00002521 00000-0 -73031-4 0 9993
2 60737 53.1619 285.5895 0002490 94.5477 265.5808 15.30178949 74421
Epoch: Dec 18, 2025 • Age: 8 hours

当前状态

高度 479.1 km
速度 7.63 km/s
星下点 48.45°N, 1.83°W
发射日期 Aug 28, 2024
运行时间 1.3 years
类型 internet

技术详情

分类 Payload
质量 730.00 kg
干质量 700.00 kg
总质量 730.00 kg
长度 0.30 m
直径 4.10 m
跨度 29.00 m
形状 Box + pan
制造商 SPXS
平台类型 Starlink V2M
阶段状态 In Orbit
所有者/国家 SPXS/US

大型星座

Loading constellations...